This is the latest recevied weather packets stored in our database for station/object HS1AXC-1. If no packets are shown the sender has not sent any weather packets the latest 10 day(s).
| Time | Temp. | Humidity | Pressure | Rain* | Wind** | Luminosity | Snow |
|---|---|---|---|---|---|---|---|
| 1788446380 | 31.67° C | 99% | 1009 hPa | - | - | 0 W/m² | - |
| 1788445758 | 31.67° C | 98% | 1009 hPa | - | - | 0 W/m² | - |
| 1788445409 | 31.67° C | 98% | 1009 hPa | - | - | 0 W/m² | - |
| 1788444788 | 32.22° C | 94% | 1008 hPa | - | - | 0 W/m² | - |
| 1788444164 | 31.67° C | 97% | 1008 hPa | - | - | 0 W/m² | - |
| 1788443542 | 31.67° C | 99% | 1008 hPa | - | - | 0 W/m² | - |
| 1788442920 | 31.67° C | 99% | 1008 hPa | - | - | 0 W/m² | - |
| 1788442297 | 31.67° C | 99% | 1008 hPa | - | - | 0 W/m² | - |
| 1788441675 | 31.67° C | 98% | 1008 hPa | - | - | 0 W/m² | - |
| 1788441057 | 31.67° C | 97% | 1008 hPa | - | - | 0 W/m² | - |
| 1788440431 | 30.56° C | 98% | 1008 hPa | - | - | 0 W/m² | - |
| 1788439809 | 31.67° C | 96% | 1008 hPa | - | - | 0 W/m² | - |
| 1788439187 | 30.56° C | 99% | 1008 hPa | - | - | 0 W/m² | - |
| 1788438565 | 30.56° C | 97% | 1007 hPa | - | - | 0 W/m² | - |
| 1788438209 | 31.11° C | 94% | 1007 hPa | - | - | 0 W/m² | - |
| 1788437587 | 32.78° C | 83% | 1007 hPa | - | - | 0 W/m² | - |
| 1788436965 | 32.22° C | 89% | 1007 hPa | - | - | 0 W/m² | - |
| 1788436343 | 32.78° C | 84% | 1007 hPa | - | - | 0 W/m² | - |
| 1788435721 | 35.56° C | 62% | 1006 hPa | - | - | 0 W/m² | - |
| 1788435099 | 35° C | 62% | 1006 hPa | - | - | 0 W/m² | - |
| 1788434477 | 35.56° C | 61% | 1005 hPa | - | - | 0 W/m² | - |
| 1788433855 | 35.56° C | 61% | 1005 hPa | - | - | 0 W/m² | - |
| 1788433254 | 36.11° C | 59% | 1005 hPa | - | - | 0 W/m² | - |
| 1788432611 | 35.56° C | 61% | 1005 hPa | - | - | 0 W/m² | - |
| 1788431989 | 36.11° C | 59% | 1005 hPa | - | - | 0 W/m² | - |
* Rain since midnight (hover to see other rain measurements)
** Current wind speed in m/s (hover to see current wind gust speed)